EW6167 Weather Reports


Display with metric or nautical units.
time (UTC)temp
F
wind
direction
speed
MPH
gust
MPH
rain 1hr
in
rain 24hr
in
rain mn
in
humidity
%
barometer
mb
20260906011058 74 194 9.0 0.0 0.00 0.00 0.00 25 1007.6
20260906010501 74 180 10.0 0.0 0.00 0.00 0.00 25 1007.6
20260906005509 75 196 9.0 0.0 0.00 0.00 0.00 24 1007.7
20260906005052 75 201 9.0 0.0 0.00 0.00 0.00 24 1007.6
20260906004551 75 200 10.0 0.0 0.00 0.00 0.00 24 1007.5
20260906004043 75 180 12.0 0.0 0.00 0.00 0.00 24 1007.7
20260906003548 75 198 12.0 0.0 0.00 0.00 0.00 24 1007.6
20260906003101 75 192 12.0 0.0 0.00 0.00 0.00 24 1007.6
20260906002555 75 216 12.0 0.0 0.00 0.00 0.00 24 1007.6
20260906002101 75 200 12.0 0.0 0.00 0.00 0.00 23 1007.6
20260906001559 76 196 13.0 0.0 0.00 0.00 0.00 23 1007.5
20260906001012 76 209 15.0 0.0 0.00 0.00 0.00 23 1007.6
20260906000526 76 221 15.0 0.0 0.00 0.00 0.00 22 1007.5
20260906000042 76 211 15.0 0.0 0.00 0.00 0.00 22 1007.5
20260905235549 76 221 14.0 0.0 0.00 0.00 0.00 22 1007.5
20260905235057 76 169 15.0 0.0 0.00 0.00 0.00 22 1007.4
20260905234503 77 197 15.0 0.0 0.00 0.00 0.00 21 1007.5
20260905234010 76 189 15.0 0.0 0.00 0.00 0.00 22 1007.5
20260905233519 76 197 14.0 0.0 0.00 0.00 0.00 21 1007.6
20260905233040 76 196 11.0 0.0 0.00 0.00 0.00 21 1007.5
20260905232549 77 173 14.0 0.0 0.00 0.00 0.00 21 1007.5
20260905232056 77 196 15.0 0.0 0.00 0.00 0.00 20 1007.4
20260905231504 77 217 13.0 0.0 0.00 0.00 0.00 20 1007.4
20260905231017 77 208 14.0 0.0 0.00 0.00 0.00 21 1007.5
20260905230533 77 197 17.0 0.0 0.00 0.00 0.00 20 1007.5
20260905230059 77 207 17.0 0.0 0.00 0.00 0.00 20 1007.6
20260905225550 77 217 18.0 0.0 0.00 0.00 0.00 20 1007.6
20260905225011 77 209 18.0 0.0 0.00 0.00 0.00 19 1007.8
20260905224524 77 226 18.0 0.0 0.00 0.00 0.00 18 1007.6
20260905224040 77 222 19.0 0.0 0.00 0.00 0.00 18 1007.9
20260905223554 77 195 18.0 0.0 0.00 0.00 0.00 20 1008.0
20260905223005 77 180 18.0 0.0 0.00 0.00 0.00 20 1007.9
20260905222517 77 219 18.0 0.0 0.00 0.00 0.00 18 1007.9
20260905222041 77 200 16.0 0.0 0.00 0.00 0.00 18 1007.9
20260905221600 77 241 14.0 0.0 0.00 0.00 0.00 21 1007.9
20260905221011 76 184 17.0 0.0 0.00 0.00 0.00 22 1008.3
20260905220533 77 209 17.0 0.0 0.00 0.00 0.00 22 1008.2
20260905220046 77 210 18.0 0.0 0.00 0.00 0.00 21 1008.1
20260905215603 76 207 21.0 0.0 0.00 0.00 0.00 21 1008.3
20260905215007 77 227 19.0 0.0 0.00 0.00 0.00 21 1008.3
20260905214513 77 197 18.0 0.0 0.00 0.00 0.00 22 1008.5
20260905214033 78 207 15.0 0.0 0.00 0.00 0.00 22 1008.4
20260905213549 77 211 15.0 0.0 0.00 0.00 0.00 22 1008.5
20260905213013 78 173 16.0 0.0 0.00 0.00 0.00 22 1008.5
20260905212523 78 205 17.0 0.0 0.00 0.00 0.00 22 1008.5
20260905212029 78 169 15.0 0.0 0.00 0.00 0.00 22 1008.4
20260905211546 77 169 15.0 0.0 0.00 0.00 0.00 24 1008.5
20260905211054 77 163 16.0 0.0 0.00 0.00 0.00 23 1008.4
20260905210513 77 142 16.0 0.0 0.00 0.00 0.00 23 1008.3
20260905210030 77 224 12.0 0.0 0.00 0.00 0.00 22 1008.3
20260905205541 77 187 12.0 0.0 0.00 0.00 0.00 24 1008.4
20260905205051 75 212 12.0 0.0 0.00 0.00 0.00 26 1008.4
20260905204605 75 167 14.0 0.0 0.00 0.00 0.00 25 1008.5
20260905204019 75 151 15.0 0.0 0.00 0.00 0.00 24 1008.6
20260905203534 74 202 15.0 0.0 0.00 0.00 0.00 25 1008.5
20260905203056 75 217 14.0 0.0 0.00 0.00 0.00 24 1008.4
20260905202559 76 171 13.0 0.0 0.00 0.00 0.00 25 1008.5
20260905202005 74 208 9.0 0.0 0.00 0.00 0.00 33 1008.6
20260905201522 72 240 6.0 0.0 0.00 0.00 0.00 31 1008.6
20260905201041 71 202 6.0 0.0 0.00 0.00 0.00 38 1008.9
20260905200548 70 323 8.0 0.0 0.00 0.00 0.00 39 1008.8
20260905200013 69 309 10.0 0.0 0.00 0.00 0.00 39 1008.8
20260905195518 69 320 9.0 0.0 0.00 0.00 0.00 39 1008.8
20260905195032 70 360 7.0 0.0 0.00 0.00 0.00 40 1008.9
20260905194540 69 17 6.0 0.0 0.00 0.00 0.00 41 1009.0
20260905194051 68 348 6.0 0.0 0.00 0.00 0.00 41 1009.0
20260905193506 68 315 7.0 0.0 0.00 0.00 0.00 42 1009.1
20260905193026 68 350 6.0 0.0 0.00 0.00 0.00 42 1009.0
20260905192539 67 5 8.0 0.0 0.00 0.00 0.00 43 1009.0
20260905192053 67 317 8.0 0.0 0.00 0.00 0.00 43 1009.2
20260905191555 67 5 8.0 0.0 0.00 0.00 0.00 45 1009.3
20260905191034 66 355 7.0 0.0 0.00 0.00 0.00 45 1009.2
20260905190528 66 355 6.0 0.0 0.00 0.00 0.00 45 1009.2
20260905190006 65 319 6.0 0.0 0.00 0.00 0.00 46 1009.4
20260905185501 65 336 7.0 0.0 0.00 0.00 0.00 47 1009.4
20260905185004 65 360 7.0 0.0 0.00 0.00 0.00 47 1009.4
20260905184517 64 349 6.0 0.0 0.00 0.00 0.00 48 1009.5
20260905184003 64 346 6.0 0.0 0.00 0.00 0.00 48 1009.7
20260905183505 64 11 6.0 0.0 0.00 0.00 0.00 48 1009.7
20260905183023 63 328 6.0 0.0 0.00 0.00 0.00 50 1009.9
20260905182532 63 330 6.0 0.0 0.00 0.00 0.00 50 1009.9
20260905182035 63 5 5.0 0.0 0.00 0.00 0.00 51 1010.0
20260905181536 62 12 4.0 0.0 0.00 0.00 0.00 52 1010.0
20260905181057 62 338 4.0 0.0 0.00 0.00 0.00 51 1010.1
20260905180554 62 22 4.0 0.0 0.00 0.00 0.00 52 1010.1
20260905180105 61 330 5.0 0.0 0.00 0.00 0.00 52 1010.3
20260905175518 61 355 4.0 0.0 0.00 0.00 0.00 53 1010.4
20260905175028 61 325 5.0 0.0 0.00 0.00 0.00 54 1010.4
20260905174535 60 325 6.0 0.0 0.00 0.00 0.00 54 1010.5
20260905174043 60 316 4.0 0.0 0.00 0.00 0.00 54 1010.5
20260905173546 60 311 4.0 0.0 0.00 0.00 0.00 55 1010.5
20260905173055 59 13 5.0 0.0 0.00 0.00 0.00 56 1010.6
20260905172505 60 331 5.0 0.0 0.00 0.00 0.00 55 1010.5
20260905172011 59 330 4.0 0.0 0.00 0.00 0.00 57 1010.6
20260905171529 59 324 5.0 0.0 0.00 0.00 0.00 57 1010.6
20260905171036 59 325 4.0 0.0 0.00 0.00 0.00 58 1010.6
20260905170539 58 360 5.0 0.0 0.00 0.00 0.00 58 1010.6
20260905170057 58 319 4.0 0.0 0.00 0.00 0.00 59 1010.6
20260905165502 58 349 4.0 0.0 0.00 0.00 0.00 60 1010.6
20260905165020 57 324 5.0 0.0 0.00 0.00 0.00 60 1010.7
20260905164544 57 355 5.0 0.0 0.00 0.00 0.00 61 1010.7
20260905164049 57 350 6.0 0.0 0.00 0.00 0.00 62 1010.7
20260905163507 56 347 7.0 0.0 0.00 0.00 0.00 62 1010.7
20260905163016 56 329 6.0 0.0 0.00 0.00 0.00 62 1010.6
20260905162524 56 310 6.0 0.0 0.00 0.00 0.00 63 1010.6
20260905162033 56 341 5.0 0.0 0.00 0.00 0.00 63 1010.5
20260905161541 56 340 5.0 0.0 0.00 0.00 0.00 62 1010.5
20260905161101 56 344 5.0 0.0 0.00 0.00 0.00 63 1010.5
20260905160501 56 5 3.0 0.0 0.00 0.00 0.00 62 1010.4
20260905160026 55 340 4.0 0.0 0.00 0.00 0.00 62 1010.4
20260905155533 55 325 4.0 0.0 0.00 0.00 0.00 62 1010.4
20260905155038 55 320 4.0 0.0 0.00 0.00 0.00 63 1010.3
20260905154600 55 355 5.0 0.0 0.00 0.00 0.00 63 1010.3
20260905154054 55 343 4.0 0.0 0.00 0.00 0.00 64 1010.4
20260905153506 54 355 4.0 0.0 0.00 0.00 0.00 65 1010.4
20260905153027 54 346 4.0 0.0 0.00 0.00 0.00 65 1010.4
20260905152537 54 360 5.0 0.0 0.00 0.00 0.00 65 1010.4
20260905152043 54 360 4.0 0.0 0.00 0.00 0.00 64 1010.3
20260905151552 54 333 4.0 0.0 0.00 0.00 0.00 65 1010.5
20260905151008 54 346 4.0 0.0 0.00 0.00 0.00 65 1010.4
20260905150519 54 325 3.0 0.0 0.00 0.00 0.00 65 1010.4
20260905150035 54 43 3.0 0.0 0.00 0.00 0.00 66 1010.4
20260905145542 54 20 3.0 0.0 0.00 0.00 0.00 66 1010.4
20260905145052 53 69 2.0 0.0 0.00 0.00 0.00 67 1010.4
20260905144603 53 80 2.0 0.0 0.00 0.00 0.00 67 1010.5
20260905144005 53 80 2.0 0.0 0.00 0.00 0.00 69 1010.5
20260905143513 52 105 2.0 0.0 0.00 0.00 0.00 70 1010.6
20260905143035 52 105 2.0 0.0 0.00 0.00 0.00 71 1010.5
20260905142542 52 196 1.0 0.0 0.00 0.00 0.00 71 1010.5
20260905142054 51 207 1.0 0.0 0.00 0.00 0.00 74 1010.4
20260905141607 50 207 1.0 0.0 0.00 0.00 0.00 76 1010.3
20260905141009 49 207 1.0 0.0 0.00 0.00 0.00 78 1010.2
20260905140517 48 201 2.0 0.0 0.00 0.00 0.00 79 1010.3
20260905140021 47 201 3.0 0.0 0.00 0.00 0.00 80 1010.2
20260905135532 47 201 3.0 0.0 0.00 0.00 0.00 82 1010.2
20260905135042 46 201 4.0 0.0 0.00 0.00 0.00 83 1010.0
20260905134554 45 201 4.0 0.0 0.00 0.00 0.00 83 1009.9
20260905134014 45 201 4.0 0.0 0.00 0.00 0.00 83 1009.9
20260905133523 44 201 5.0 0.0 0.00 0.00 0.00 82 1009.8
20260905133029 44 201 5.0 0.0 0.00 0.00 0.00 84 1009.7
20260905132541 44 196 5.0 0.0 0.00 0.00 0.00 84 1009.3
20260905132056 43 195 4.0 0.0 0.00 0.00 0.00 84 1009.2
20260905131605 43 196 4.0 0.0 0.00 0.00 0.00 84 1009.1
20260905131022 43 195 2.0 0.0 0.00 0.00 0.00 83 1008.9
20260905130534 43 195 2.0 0.0 0.00 0.00 0.00 81 1008.9
20260905130042 43 195 2.0 0.0 0.00 0.00 0.00 81 1008.7
20260905125553 44 195 3.0 0.0 0.00 0.00 0.00 80 1008.7
20260905125015 45 195 4.0 0.0 0.00 0.00 0.00 80 1008.8
20260905124532 45 196 4.0 0.0 0.00 0.00 0.00 80 1008.7
20260905124040 45 195 4.0 0.0 0.00 0.00 0.00 80 1008.6
20260905123551 46 195 4.0 0.0 0.00 0.00 0.00 79 1008.6
20260905123105 46 195 3.0 0.0 0.00 0.00 0.00 80 1008.6
20260905122522 46 195 3.0 0.0 0.00 0.00 0.00 81 1008.5
20260905122042 45 196 3.0 0.0 0.00 0.00 0.00 82 1008.4
20260905121555 45 195 3.0 0.0 0.00 0.00 0.00 82 1008.3
20260905121003 44 195 3.0 0.0 0.00 0.00 0.00 81 1008.3
20260905120527 44 105 2.0 0.0 0.00 0.00 0.00 81 1008.3
20260905120046 44 105 2.0 0.0 0.00 0.00 0.00 80 1008.3
20260905115603 45 105 2.0 0.0 0.00 0.00 0.00 80 1008.2
20260905115012 45 105 3.0 0.0 0.00 0.00 0.00 80 1008.2
20260905114532 45 105 4.0 0.0 0.00 0.00 0.00 80 1008.2
20260905114041 45 105 4.0 0.0 0.00 0.00 0.00 79 1008.1
20260905113549 45 105 5.0 0.0 0.00 0.00 0.00 79 1008.1
20260905113120 46 105 5.0 0.0 0.00 0.00 0.00 79 1008.1
20260905112506 46 105 4.0 0.0 0.00 0.00 0.00 80 1008.0
20260905112015 46 9 3.0 0.0 0.00 0.00 0.00 79 1008.0
20260905111534 46 342 3.0 0.0 0.00 0.00 0.00 78 1007.9
20260905111046 46 342 4.0 0.0 0.00 0.00 0.00 78 1007.8
20260905110600 46 342 5.0 0.0 0.00 0.00 0.00 79 1007.9
20260905110018 46 342 5.0 0.0 0.00 0.00 0.00 78 1007.8
20260905105535 46 342 4.0 0.0 0.00 0.00 0.00 78 1007.7
20260905105054 46 342 3.0 0.0 0.00 0.00 0.00 76 1007.7
20260905104603 47 342 3.0 0.0 0.00 0.00 0.00 75 1007.6
20260905104017 47 342 4.0 0.0 0.00 0.00 0.00 74 1007.5
20260905103535 48 342 3.0 0.0 0.00 0.00 0.00 71 1007.4
20260905103049 49 342 2.0 0.0 0.00 0.00 0.00 71 1007.5
20260905102557 50 342 1.0 0.0 0.00 0.00 0.00 70 1007.5
20260905102012 51 342 1.0 0.0 0.00 0.00 0.00 71 1007.4
20260905101524 51 342 1.0 0.0 0.00 0.00 0.00 70 1007.4
20260905101039 51 342 2.0 0.0 0.00 0.00 0.00 70 1007.4
20260905100552 51 342 2.0 0.0 0.00 0.00 0.00 69 1007.3
20260905100108 52 342 2.0 0.0 0.00 0.00 0.00 69 1007.3
20260905095516 52 342 3.0 0.0 0.00 0.00 0.00 69 1007.1
20260905095032 52 342 3.0 0.0 0.00 0.00 0.00 68 1007.1
20260905094543 52 342 2.0 0.0 0.00 0.00 0.00 68 1007.0
20260905094059 52 342 2.0 0.0 0.00 0.00 0.00 68 1007.0
20260905093507 52 342 4.0 0.0 0.00 0.00 0.00 67 1006.9
20260905093017 53 342 5.0 0.0 0.00 0.00 0.00 67 1006.9
20260905092539 53 342 6.0 0.0 0.00 0.00 0.00 67 1006.7
20260905092053 53 340 7.0 0.0 0.00 0.00 0.00 66 1006.7
20260905091513 54 329 8.0 0.0 0.00 0.00 0.00 66 1006.7
20260905091027 54 327 6.0 0.0 0.00 0.00 0.00 65 1006.7
20260905090536 54 329 5.0 0.0 0.00 0.00 0.00 65 1006.5
20260905090048 54 319 6.0 0.0 0.00 0.00 0.00 64 1006.5
20260905085504 54 320 5.0 0.0 0.00 0.00 0.00 63 1006.4
20260905085105 54 323 6.0 0.0 0.00 0.00 0.00 63 1006.3
20260905084601 54 321 5.0 0.0 0.00 0.00 0.00 63 1006.2
20260905084002 54 322 3.0 0.0 0.00 0.00 0.00 63 1006.2
20260905083602 53 13 2.0 0.0 0.00 0.00 0.00 63 1006.1
20260905083110 53 53 3.0 0.0 0.00 0.00 0.00 63 1006.2
20260905082603 54 27 5.0 0.0 0.00 0.00 0.00 63 1006.0
20260905082003 54 28 7.0 0.0 0.00 0.00 0.00 62 1005.7
20260905081605 54 36 6.0 0.0 0.00 0.00 0.00 62 1005.9
20260905081001 54 60 5.0 0.0 0.00 0.00 0.00 60 1006.3
20260905080557 54 44 6.0 0.0 0.00 0.00 0.00 60 1006.1
20260905080053 53 82 6.0 0.0 0.00 0.00 0.00 59 1006.1
20260905075554 53 47 5.0 0.0 0.00 0.00 0.00 57 1005.6
20260905075054 53 63 3.0 0.0 0.00 0.00 0.00 58 1005.7
20260905074549 52 42 2.0 0.0 0.00 0.00 0.00 57 1005.9
20260905074050 52 42 2.0 0.0 0.00 0.00 0.00 57 1005.5
20260905073550 52 42 2.0 0.0 0.00 0.00 0.00 56 1005.4
20260905073043 52 42 3.0 0.0 0.00 0.00 0.00 56 1005.2
20260905072543 52 34 4.0 0.0 0.00 0.00 0.00 56 1004.9
20260905072051 52 55 4.0 0.0 0.00 0.00 0.00 57 1005.0
20260905071551 52 84 5.0 0.0 0.00 0.00 0.00 55 1005.0
20260905071052 53 355 4.0 0.0 0.00 0.00 0.00 54 1004.9
20260905070558 53 355 6.0 0.0 0.00 0.00 0.00 54 1004.7
20260905070059 53 355 7.0 0.0 0.00 0.00 0.00 53 1004.7
20260905065603 53 323 6.0 0.0 0.00 0.00 0.00 55 1004.8
20260905065002 53 308 5.0 0.0 0.00 0.00 0.00 56 1004.4
20260905064607 52 259 5.0 0.0 0.00 0.00 0.00 56 1004.1
20260905064104 53 286 3.0 0.0 0.00 0.00 0.00 56 1004.1
20260905063553 53 286 3.0 0.0 0.00 0.00 0.00 53 1003.9
20260905063056 53 286 3.0 0.0 0.00 0.00 0.00 53 1003.7
20260905062549 53 286 4.0 0.0 0.00 0.00 0.00 54 1003.6
20260905062050 54 286 4.0 0.0 0.00 0.00 0.00 53 1003.7
20260905061607 54 339 4.0 0.0 0.00 0.00 0.00 52 1003.8
20260905061004 54 339 3.0 0.0 0.00 0.00 0.00 52 1003.8
20260905060609 55 339 3.0 0.0 0.00 0.00 0.00 52 1003.8
20260905060101 55 227 2.0 0.0 0.00 0.00 0.00 49 1003.7
20260905055557 55 202 3.0 0.0 0.00 0.00 0.00 49 1003.9
20260905055104 56 203 5.0 0.0 0.00 0.00 0.00 48 1003.7
20260905054557 57 196 6.0 0.0 0.00 0.00 0.00 46 1003.7
20260905054105 57 155 6.0 0.0 0.00 0.00 0.00 46 1003.6
20260905053502 57 133 6.0 0.0 0.00 0.00 0.00 46 1003.5
20260905053002 57 152 6.0 0.0 0.00 0.00 0.00 46 1003.7
20260905052602 57 143 7.0 0.0 0.00 0.00 0.00 45 1003.8
20260905052011 57 157 7.0 0.0 0.00 0.00 0.00 45 1003.7
20260905051510 57 145 7.0 0.0 0.00 0.00 0.00 45 1003.8
20260905051011 57 165 7.0 0.0 0.00 0.00 0.00 45 1003.8
20260905050525 58 148 8.0 0.0 0.00 0.00 0.00 44 1003.8
20260905050032 59 168 8.0 0.0 0.00 0.00 0.00 43 1004.0
20260905045530 59 169 8.0 0.0 0.00 0.00 0.00 42 1004.1
20260905045037 60 191 9.0 0.0 0.00 0.00 0.00 42 1004.2
20260905044531 59 175 9.0 0.0 0.00 0.00 0.00 42 1004.3
20260905044037 59 181 9.0 0.0 0.00 0.00 0.00 42 1004.6
20260905043532 59 159 8.0 0.0 0.00 0.00 0.00 42 1004.4
20260905043049 60 163 9.0 0.0 0.00 0.00 0.00 42 1004.5
20260905042530 59 159 10.0 0.0 0.00 0.00 0.00 42 1004.6
20260905042039 59 188 9.0 0.0 0.00 0.00 0.00 42 1004.8
20260905041538 59 193 9.0 0.0 0.00 0.00 0.00 42 1004.8
20260905041036 59 182 9.0 0.0 0.00 0.00 0.00 42 1004.8
20260905040542 59 170 9.0 0.0 0.00 0.00 0.00 42 1004.8
20260905040055 59 180 9.0 0.0 0.00 0.00 0.00 42 1004.9
20260905035549 59 190 7.0 0.0 0.00 0.00 0.00 42 1005.0
20260905035047 59 198 7.0 0.0 0.00 0.00 0.00 42 1005.0
20260905034604 60 199 8.0 0.0 0.00 0.00 0.00 41 1005.0
20260905034006 60 175 8.0 0.0 0.00 0.00 0.00 41 1005.2
20260905033514 60 186 8.0 0.0 0.00 0.00 0.00 41 1005.2
20260905033030 59 192 8.0 0.0 0.00 0.00 0.00 42 1005.1
20260905032532 58 159 7.0 0.0 0.00 0.00 0.00 43 1005.2
20260905032031 58 176 6.0 0.0 0.00 0.00 0.00 43 1005.2
20260905031535 57 177 5.0 0.0 0.00 0.00 0.00 43 1005.2
20260905031039 57 183 5.0 0.0 0.00 0.00 0.00 43 1005.0
20260905030554 57 188 5.0 0.0 0.00 0.00 0.00 43 1005.1
20260905030006 57 194 5.0 0.0 0.00 0.00 0.00 43 1005.2
20260905025502 57 192 4.0 0.0 0.00 0.00 0.00 42 1005.1
20260905025002 57 179 4.0 0.0 0.00 0.00 0.00 42 1005.1
20260905024606 58 178 4.0 0.0 0.00 0.00 0.00 42 1005.0
20260905024002 59 190 4.0 0.0 0.00 0.00 0.00 40 1004.9
20260905023605 59 198 5.0 0.0 0.00 0.00 0.00 40 1004.9
20260905023104 60 195 5.0 0.0 0.00 0.00 0.00 39 1004.8
20260905022601 60 188 6.0 0.0 0.00 0.00 0.00 39 1004.8
20260905022011 60 192 5.0 0.0 0.00 0.00 0.00 39 1004.7
20260905021527 60 196 5.0 0.0 0.00 0.00 0.00 38 1004.7
20260905021027 62 176 4.0 0.0 0.00 0.00 0.00 36 1004.6
20260905020537 63 142 3.0 0.0 0.00 0.00 0.00 35 1004.6
20260905020103 64 176 4.0 0.0 0.00 0.00 0.00 33 1004.5
20260905015549 65 176 5.0 0.0 0.00 0.00 0.00 33 1004.4
20260905015050 66 171 5.0 0.0 0.00 0.00 0.00 32 1004.3
20260905014600 67 163 6.0 0.0 0.00 0.00 0.00 31 1004.4
20260905014057 68 168 7.0 0.0 0.00 0.00 0.00 30 1004.3
20260905013558 69 173 8.0 0.0 0.00 0.00 0.00 29 1004.4
20260905013109 69 175 8.0 0.0 0.00 0.00 0.00 29 1004.2
20260905012556 70 169 7.0 0.0 0.00 0.00 0.00 28 1004.2
20260905012102 70 178 8.0 0.0 0.00 0.00 0.00 28 1004.2
20260905011628 71 157 8.0 0.0 0.00 0.00 0.00 28 1004.1